DW2465 Weather Reports


Display with metric or nautical units.
time (UTC)temp
F
wind
direction
speed
MPH
gust
MPH
rain 1hr
in
rain 24hr
in
rain mn
in
humidity
%
barometer
mb
20260906014525 76 156 0.0 0.0 0.00 0.00 0.00 78 1014.5
20260906013014 77 141 0.0 0.0 0.00 0.00 0.00 77 1014.0
20260906011512 77 148 0.0 0.0 0.00 0.00 0.00 76 1013.5
20260906010011 78 138 0.0 0.0 0.00 0.00 0.00 74 1013.4
20260906004511 79 175 0.0 0.0 0.00 0.00 0.00 72 1013.2
20260906003008 80 166 0.0 0.0 0.00 0.00 0.00 69 1013.2
20260906001508 81 180 0.0 0.0 0.00 0.00 0.00 68 1013.1
20260906000007 82 188 0.0 0.0 0.00 0.00 0.00 66 1012.9
20260905234507 83 94 0.0 0.0 0.00 0.00 0.00 63 1012.9
20260905233007 84 92 0.0 0.0 0.00 0.00 0.00 61 1012.9
20260905231536 84 65 0.0 0.0 0.00 0.00 0.00 61 1012.9
20260905230040 84 89 0.0 0.0 0.00 0.00 0.00 63 1012.7
20260905224533 84 78 0.0 0.0 0.00 0.00 0.00 62 1012.5
20260905223035 84 71 0.0 0.0 0.00 0.00 0.00 63 1012.4
20260905221531 84 113 0.0 0.0 0.00 0.00 0.00 63 1012.1
20260905220032 84 88 0.0 0.0 0.00 0.00 0.00 62 1012.3
20260905214528 84 41 0.0 0.0 0.00 0.00 0.00 63 1012.6
20260905213023 83 119 0.0 0.0 0.00 0.00 0.00 63 1012.8
20260905211521 83 96 0.0 0.0 0.00 0.00 0.00 64 1012.9
20260905210028 82 122 0.0 0.0 0.00 0.00 0.00 68 1013.2
20260905204515 82 74 0.0 0.0 0.00 0.00 0.00 68 1013.3
20260905203012 81 128 0.0 0.0 0.00 0.00 0.00 72 1013.4
20260905201508 80 78 0.0 0.0 0.00 0.00 0.00 75 1013.7
20260905200005 78 43 0.0 0.0 0.00 0.00 0.00 78 1014.0
20260905194533 77 58 0.0 0.0 0.00 0.00 0.00 78 1014.3
20260905193034 77 59 0.0 0.0 0.00 0.00 0.00 80 1014.5
20260905191535 77 59 0.0 0.0 0.00 0.00 0.00 80 1014.5
20260905190027 77 56 0.0 0.0 0.00 0.00 0.00 79 1014.9
20260905184524 76 45 0.0 0.0 0.00 0.00 0.00 82 1015.1
20260905183019 75 344 0.0 0.0 0.00 0.00 0.00 84 1015.1
20260905181519 73 88 0.0 0.0 0.00 0.00 0.00 88 1015.4
20260905180008 72 105 0.0 0.0 0.00 0.00 0.00 90 1015.5
20260905174517 70 128 0.0 0.0 0.00 0.00 0.00 92 1015.5
20260905173002 70 128 0.0 0.0 0.00 0.00 0.00 93 1015.9
20260905171537 69 132 0.0 0.0 0.00 0.00 0.00 94 1015.9
20260905170029 69 110 0.0 0.0 0.00 0.00 0.00 95 1015.9
20260905164525 68 76 0.0 0.0 0.00 0.00 0.00 95 1016.0
20260905163030 68 67 0.0 0.0 0.00 0.00 0.00 95 1016.0
20260905161522 68 111 0.0 0.0 0.00 0.00 0.00 96 1016.1
20260905160020 67 32 0.0 0.0 0.00 0.00 0.00 96 1016.0
20260905154517 67 44 0.0 0.0 0.00 0.00 0.00 96 1015.8
20260905153016 66 34 0.0 0.0 0.00 0.00 0.00 96 1015.9
20260905151515 66 34 0.0 0.0 0.00 0.00 0.00 96 1015.9
20260905150014 66 34 0.0 0.0 0.00 0.00 0.00 96 1015.8
20260905144542 66 34 0.0 0.0 0.00 0.00 0.00 96 1015.4
20260905143043 66 42 0.0 0.0 0.00 0.00 0.00 96 1015.1
20260905141540 65 26 0.0 0.0 0.00 0.00 0.00 96 1015.1
20260905140038 65 15 0.0 0.0 0.00 0.00 0.00 96 1015.2
20260905134538 65 27 0.0 0.0 0.00 0.00 0.00 96 1015.2
20260905133037 65 40 0.0 0.0 0.00 0.00 0.00 96 1015.1
20260905131538 66 314 0.0 0.0 0.00 0.00 0.00 96 1015.3
20260905130032 66 37 0.0 0.0 0.00 0.00 0.00 96 1015.0
20260905124528 66 36 0.0 0.0 0.00 0.00 0.00 96 1014.4
20260905123035 66 80 0.0 0.0 0.00 0.00 0.00 96 1013.9
20260905121517 65 90 0.0 0.0 0.00 0.00 0.00 96 1013.9
20260905120022 65 62 0.0 0.0 0.00 0.00 0.00 96 1014.0
20260905114519 65 28 0.0 0.0 0.00 0.00 0.00 96 1014.1
20260905113015 65 55 0.0 0.0 0.00 0.00 0.00 96 1013.9
20260905111522 65 64 0.0 0.0 0.00 0.00 0.00 96 1013.8
20260905110019 65 71 0.0 0.0 0.00 0.00 0.00 95 1013.6
20260905104521 65 31 0.0 0.0 0.00 0.00 0.00 95 1013.7
20260905103021 64 18 0.0 0.0 0.00 0.00 0.00 95 1013.6
20260905101519 65 58 0.0 0.0 0.00 0.00 0.00 95 1013.5
20260905100021 65 24 0.0 0.0 0.00 0.00 0.00 95 1013.3
20260905094525 65 57 0.0 0.0 0.00 0.00 0.00 95 1013.0
20260905093017 65 350 0.0 0.0 0.00 0.00 0.00 95 1012.5
20260905091552 65 360 0.0 0.0 0.00 0.00 0.00 95 1012.6
20260905090046 65 21 0.0 0.0 0.00 0.00 0.00 95 1013.0
20260905084551 65 340 0.0 0.0 0.00 0.00 0.00 94 1013.4
20260905083036 65 9 0.0 0.0 0.00 0.00 0.00 95 1013.3
20260905081539 65 87 0.0 0.0 0.00 0.00 0.00 94 1013.1
20260905080035 65 46 0.0 0.0 0.00 0.00 0.00 94 1013.3
20260905074534 65 46 0.0 0.0 0.00 0.00 0.00 94 1013.3
20260905073003 65 41 0.0 0.0 0.00 0.00 0.00 94 1013.5
20260905071504 65 51 0.0 0.0 0.00 0.00 0.00 94 1013.4
20260905070100 65 31 0.0 0.0 0.00 0.00 0.00 94 1013.5
20260905064600 64 19 0.0 0.0 0.00 0.00 0.00 93 1013.6
20260905063100 64 14 0.0 0.0 0.00 0.00 0.00 93 1013.3
20260905061605 65 26 0.0 0.0 0.00 0.00 0.00 92 1013.1
20260905060104 65 11 0.0 0.0 0.00 0.00 0.00 91 1013.4
20260905054600 66 24 0.0 0.0 0.00 0.00 0.00 90 1013.3
20260905053048 67 25 0.0 0.0 0.00 0.00 0.00 90 1013.3
20260905051603 67 21 0.0 0.0 0.00 0.00 0.00 89 1013.0
20260905050041 67 20 0.0 0.0 0.00 0.00 0.00 88 1012.8
20260905044543 68 26 0.0 0.0 0.00 0.00 0.00 88 1012.6
20260905043040 68 360 0.0 0.0 0.00 0.00 0.00 87 1012.7
20260905041535 69 41 0.0 0.0 0.00 0.00 0.00 85 1012.8
20260905040031 70 28 0.0 0.0 0.00 0.00 0.00 85 1012.9
20260905034529 70 18 0.0 0.0 0.00 0.00 0.00 84 1012.6
20260905033025 71 23 0.0 0.0 0.00 0.00 0.00 83 1012.6
20260905031536 72 68 0.0 0.0 0.00 0.00 0.00 81 1012.4
20260905024603 73 46 0.0 0.0 0.00 0.00 0.00 80 1012.3
20260905023051 74 18 0.0 0.0 0.00 0.00 0.00 79 1012.0
20260905021546 75 27 0.0 0.0 0.00 0.00 0.00 79 1011.9
20260905020044 75 40 0.0 0.0 0.00 0.00 0.00 78 1011.7